Regional Weather Roundup
Issued by NWS Kansas City/Pleasant Hill, MO

Home | Current Version | Previous Version | Text Only | Print | Product List | Glossary On
Versions: 1 2 3 4 5 6 7 8 9 10 11 12 13 14 15 16 17 18 19 20 21 22 23 24 25 26 27
000
ASUS43 KEAX 301010
RWREAX

WEATHER ROUNDUP FOR EASTERN KANSAS AND NORTHWEST MISSOURI
NATIONAL WEATHER SERVICE KANSAS CITY/PLEASANT HILL MO
500 AM CDT THU MAR 30 2017

KSZ040-057-103>105-MOZ028-029-037-043-301100-
...KANSAS CITY METROPOLITAN AREA...

CITY           SKY/WX    TMP DP  RH WIND       PRES   REMARKS
K.C. INTL      FOG       51  51 100 E10       29.55F VSB 1/2
K.C. DOWNTOWN  CLOUDY    52  48  86 S12       29.55F
LEES SUMMIT    CLOUDY    49  46  90 S10       29.57S
OLATHE - IXD   CLOUDY    48  45  89 S9        29.55F
OLATHE - OJC   CLOUDY    47  46  97 SE6       29.55F
LAWRENCE       CLOUDY    49  47  93 E9        29.55F

$$

MOZ001>008-011>017-020>025-030>033-038>040-044>046-053-054-301100-
...NORTHERN AND CENTRAL MISSOURI...

CITY           SKY/WX    TMP DP  RH WIND       PRES   REMARKS
ST. JOSEPH     LGT RAIN  49  49 100 E10       29.56F
MOSBY          CLOUDY    52  50  93 E7        29.56F
WARRENSBURG    CLOUDY    48  46  93 S9        29.57F
WHITEMAN AFB   PTCLDY    52  52 100 SW13      29.56F
CLINTON        CLEAR     48  45  87 SW9       29.59F
SEDALIA        CLEAR     54  50  86 SW9       29.58F
WARSAW         NOT AVBL
CHILLICOTHE      N/A     48  46  93 NE8       29.59F
KIRKSVILLE     CLOUDY    48  32  53 NE12      29.62F

$$

MOZ041-047>049-056>058-063>065-088>090-097-301100-
...EASTERN AND SOUTHERN MISSOURI...

CITY           SKY/WX    TMP DP  RH WIND       PRES   REMARKS
ST. LOUIS INTL MOCLDY    62  57  83 S5        29.60S
SPIRIT OF STL  CLOUDY    60  59  96 SW5       29.59F
COLUMBIA       LGT RAIN  59  59 100 S3        29.56F FOG
JEFFERSON CITY LGT RAIN  63  59  87 CALM      29.57F
ROLLA          LGT RAIN  58  58 100 S6        29.59F
OSAGE BEACH    CLOUDY    57  56  96 SE6       29.59F
SPRINGFIELD    CLEAR     50  45  83 SW12      29.60F
BRANSON        PTCLDY    52  45  76 SW9       29.63F
JOPLIN         CLOUDY    48  42  80 SW17      29.61F
WEST PLAINS    CLOUDY    62  59  90 S9        29.62F

$$

IAZ060-094-KSZ022-034>040-054-083-096-NEZ052-066-093-301100-
...KANSAS...SOUTHEAST NEBRASKA AND IOWA...

CITY           SKY/WX    TMP DP  RH WIND       PRES   REMARKS
TOPEKA         CLOUDY    50  49  96 SE3       29.54S
MANHATTAN      LGT RAIN  45  43  93 N14G22    29.56S FOG
EMPORIA        CLOUDY    44  44 100 W10       29.52S FOG
CHANUTE        LGT RAIN  47  45  93 SW13      29.56F FOG
WICHITA        CLOUDY    44  44 100 NW20      29.63S FOG
OMAHA          DRIZZLE   42  37  82 N14G24    29.70F WCI  35
LINCOLN        LGT RAIN  41  40  96 N20       29.70F FOG     WCI  32
FALLS CITY     LGT RAIN  47  45  93 N13       29.58F
LAMONI         CLOUDY    44  43  96 E10       29.59F
DES MOINES     CLOUDY    44  40  85 E15G28    29.66F

$$





USA.gov is the U.S. government's official web portal to all federal, state and local government web resources and services.